Powrót do katalogu

STARLINK-37779

AktywnyŁącznośćSSO
NORAD 69350·PAYLOAD·🇺🇸 United States

Wystrzelony Jun 3, 2026 z Vandenberg Space Force Base

Loading…

Następne Przeloty (najbliższe 24 godziny)

TLE

ŚwieżeSource: CelesTrak SupGP

Epoka: Sep 14, 2026, 15:37 UTC

1 69350C 26122X   26257.65118056 -.00039583  00000+0 -12285-2 0  2576
2 69350  97.2831 286.4125 0001075  99.4612   9.6035 15.33465576    16

Śledź STARLINK-37779 w czasie rzeczywistym z AllMySat

Download on the App Store